SBYC BurgeeSandy Bay Yacht Club
Weather Center


NOAA NWS Hourly Roundups by Site

NOAA NWS Hourly Roundups by Site

Regional Weather Roundup for Boston, MA

To Select Another Site Choose from List
Select Site:  

000
ASUS41 KBOX 250710
RWRBOX

REGIONAL WEATHER ROUNDUP
NATIONAL WEATHER SERVICE BOSTON/NORTON MA
200 AM EST SAT JAN 25 2020

NOTE:  "FAIR" INDICATES FEW OR NO CLOUDS BELOW 12,000 FEET WITH NO
SIGNIFICANT WEATHER AND/OR OBSTRUCTIONS TO VISIBILITY.

MAZALL-250800-
EASTERN MASSACHUSETTS

CITY           SKY/WX    TMP DP  RH WIND       PRES   REMARKS
BOSTON         NOT AVBL
BEVERLY        CLOUDY    38  32  79 NE6       30.35F
LAWRENCE       CLOUDY    35  32  88 N5        30.38F WCI  31
BEDFORD        CLOUDY    35  32  88 CALM      30.34F
BLUE HILL        N/A     36  32  85 E13       30.30F WCI  27
NORWOOD        CLOUDY    32  27  81 CALM      30.34F HAZE
MARSHFIELD     CLOUDY    41  36  81 E8G14     30.34S
PLYMOUTH       CLOUDY    37  34  89 E6        30.33F
TAUNTON        CLOUDY    27  25  92 CALM      30.33F
NEW BEDFORD    CLOUDY    33  32  96 NE6       30.31F WCI  28
$$

MAZALL-250800-
CAPE COD AND THE ISLANDS

CITY           SKY/WX    TMP DP  RH WIND       PRES   REMARKS
FALMOUTH       PTCLDY    34  32  93 E9        30.31F WCI  26
HYANNIS        FAIR      33  29  85 NE5       30.30F WCI  29
CHATHAM        FAIR      40  36  86 E6        30.33F
PROVINCETOWN   CLOUDY    39  35  86 E6        30.35S
NANTUCKET      FAIR      39  36  89 NE10      30.29F
MARTHAS VNYRD  FAIR      36  34  92 E8        30.29F WCI  30
$$

MAZALL-250800-
CENTRAL AND WESTERN MASSACHUSETTS

CITY           SKY/WX    TMP DP  RH WIND       PRES   REMARKS
WORCESTER      CLOUDY    33  31  92 NE8       30.30S WCI  26
FITCHBURG      CLOUDY    36  31  82 CALM      30.35F
ORANGE         CLOUDY    31  27  85 CALM      30.33F
SPRINGFIELD    CLOUDY    32  29  88 NE3       30.30F
WESTFIELD      CLOUDY    36  29  75 NE6       30.31F WCI  31
NORTH ADAMS    FAIR      36  27  69 E20G26    30.28F WCI  25
PITTSFIELD     CLOUDY    34  27  75 E6        30.25S WCI  29
$$

RIZALL-250800-
RHODE ISLAND

CITY           SKY/WX    TMP DP  RH WIND       PRES   REMARKS
PROVIDENCE     CLOUDY    36  34  92 NE9       30.32F WCI  29
NEWPORT        FAIR      36  32  85 NE6       30.30F WCI  31
BLOCK ISLAND   CLOUDY    39  35  86 E13       30.29F WCI  31
SMITHFIELD     CLOUDY    35  34  96 NE5       30.31F WCI  31
WESTERLY       CLOUDY    38  32  79 NE5       30.30F
$$

CTZALL-250800-
CONNECTICUT

CITY           SKY/WX    TMP DP  RH WIND       PRES   REMARKS
BRADLEY INTL   MOCLDY    34  30  85 N7        30.31F WCI  28
HARTFORD       MOCLDY    37  31  78 VRB5      30.32S
BRIDGEPORT     CLOUDY    38  33  82 NE12      30.28F WCI  30
DANBURY        MOCLDY    33  30  88 E9        30.27S WCI  25
GROTON         MOCLDY    36  34  92 NE10      30.29F WCI  28
NEW HAVEN      CLOUDY    37  32  82 NE7       30.29F WCI  32
CHESTER        NOT AVBL
MERIDEN        MOCLDY    32  29  88 NW3       30.31S
WILLIMANTIC    CLOUDY    36  32  85 NE6       30.32F WCI  31
OXFORD         CLOUDY    33  31  92 E9        30.27F WCI  25
$$

MEZ002-015-021-024-NHZ003-005-008-011-012-014-VTZ005-008-250800-
NORTHERN NEW ENGLAND

CITY           SKY/WX    TMP DP  RH WIND       PRES   REMARKS
PORTLAND ME    CLOUDY    37  30  75 NE5       30.41R
BANGOR ME      CLOUDY    26  24  92 N3        30.44F
CONCORD NH     CLOUDY    34  30  85 NE3       30.37F
MANCHESTER NH  CLOUDY    36  32  85 NE6       30.35F WCI  31
NASHUA NH      CLOUDY    35  35 100 CALM      30.37F
PORTSMOUTH NH  CLOUDY    36  32  85 N6        30.36F WCI  31
JAFFREY NH     CLOUDY    35  30  82 CALM      30.32F
KEENE NH       FAIR      21  19  93 CALM      30.34F FOG
BURLINGTON VT  FAIR      25  18  74 CALM      30.27F
MT. WASHINGTON NOT AVBL
$$

NYZ052-076-250800-
EASTERN NEW YORK

CITY           SKY/WX    TMP DP  RH WIND       PRES   REMARKS
ALBANY         FAIR      24  16  71 CALM      30.29S
NEW YORK CITY  CLOUDY    38  33  82 E16       30.23F WCI  29
$$

ANZALL-250800-
MARINE OBSERVATIONS

STATION/POSITION TIME  TEMP    WIND        PRES    VSBY  WAVE
                       AIR SEA DIR/SP/G                  HT/PER
                 (UTC) (F)     (DEG/KT/KT) (MB)    (MI)  (FT/S)
BOSTON BUOY      0650   42 43   90/ 10/ 12 1027.2S         3/11
BUZZARDS BAY     0600   38      60/ 13/ 14 1026.8F
NANTUCKET SOUND  0640                      1026.4
MASS BAY-STELLWA 0604   42 41  130/ 10/ 12 1026.0F  1 7/8  4/11
ISLE OF SHOALS   0700   41      90/ 13/ 13 1028.0F
S OF BLOCK IS    0700      45                N/A           4/10
$$

......................KEY.........................
  SKY/WX - SKY CONDITION/PRESENT WEATHER
  TMP    - TEMPERATURE IN FAHRENHEIT
  DWPT   - DEWPOINT IN FAHRENHEIT
  RH     - RELATIVE HUMIDITY IN PERCENT
  WIND   - DIRECTION AND SPEED IN MPH
  PRES   - MEAN SEA LEVEL PRESSURE IN INCHES OF HG
  WCI    - WIND CHILL INDEX
  VSB    - VISIBILITY IN MILES
  HX     - HEAT INDEX
  TC     - TEMPERATURE IN CELSIUS
  VRB    - VARIABLE WIND DIRECTION
  N/A    - NOT AVAILABLE



 

View Past Reports for Boston, MA.

Products Courtesy of NOAA-NWS
NWS Information Parsing Script by Ken True at Saratoga Weather - Script by SE Lincoln Weather.

 



home

Copyright © Sandy Bay Yacht Club. All rights reserved.